Regional Weather Roundup
Issued by NWS

Home | Current Version | Previous Version | Text Only | Print | Product List | Glossary Off
Versions: 1 2 3 4 5 6 7 8 9 10 11 12 13 14 15 16 17 18 19 20 21 22 23 24 25 26 27 28 29 30 31 32 33 34 35 36 37 38 39 40 41 42 43 44 45 46 47 48 49 50

000
ASUS43 KLMK 252102
RWRKY
KENTUCKY REGIONAL WEATHER ROUNDUP
NATIONAL WEATHER SERVICE LOUISVILLE KY
500 PM EDT SAT APR 25 2015

NOTE "FAIR" INDICATES FEW OR NO CLOUDS BELOW 12,000 FEET
WITH NO SIGNIFICANT WEATHER AND/OR OBSTRUCTIONS TO VISIBILITY.

KYZ001>023-026-027-061>063-070>075-252200-
WESTERN AND SOUTH CENTRAL KENTUCKY

CITY           SKY/WX    TMP DP  RH WIND       PRES   REMARKS
PADUCAH        PTSUNNY   77  59  53 SW16G23   29.46F
HENDERSON      CLOUDY    75  55  50 W13       29.45F
OWENSBORO      PTSUNNY   80  60  50 W14G21    29.47F
HOPKINSVILLE   MOSUNNY   80  60  50 SW21G28   29.47F HAZE
BOWLING GREEN  SUNNY     81  57  43 SW15      29.49F
GLASGOW        NOT AVBL
$$

KYZ024-025-028>034-038-045-046-053-252200-
NORTH CENTRAL KENTUCKY

CITY           SKY/WX    TMP DP  RH WIND       PRES   REMARKS
LOUISVILLE/SDF CLOUDY    61  55  81 N15       29.54F
LOUISVILLE/LOU CLOUDY    60  55  83 NE12      29.55F
FORT KNOX      PTSUNNY   66  60  79 N10       29.49S
$$

KYZ035>037-039>044-047>052-055>060-089>105-252200-
NORTHEAST KENTUCKY

CITY           SKY/WX    TMP DP  RH WIND       PRES   REMARKS
LEXINGTON      CLOUDY    58  54  86 NE12      29.56F
COVINGTON      CLOUDY    43  42  97 NE17G23   29.63F FOG
FRANKFORT      CLOUDY    55  52  89 NE8       29.56S
$$

KYZ054-064>069-076>088-106>120-252200-
SOUTHEAST KENTUCKY

CITY           SKY/WX    TMP DP  RH WIND       PRES   REMARKS
JACKSON        PTSUNNY   69  58  67 CALM      29.54F
LONDON         MOSUNNY   78  55  44 SW13G21   29.53F
SOMERSET       NOT AVBL
MIDDLESBORO    PTSUNNY   71  60  69 S8        29.58F
MONTICELLO     PTCLDY    82  57  42 W20G29    29.55F
$$



USA.gov is the U.S. government's official web portal to all federal, state and local government web resources and services.